When you browse on this site, cookies collect data to enhance your experience and personalize the content and advertising you see.
Visit our Privacy Policy to learn more. By continuing to use the site, you agree to this use of cookies and data.
  • In United Kingdom
  • List of Countries
  • For 7 days
  • Water Temperature
  • Satellite Maps
  • Weather Map
  • Weather Widgets
  • user-avatar
    Login

    Hourly Weather Ganne Tiqwa

    Today, 24 March, Sunday

    Time Temperature Precipitation Wind Pressure Humidity
    00:00 +17°C° 0 mm 2 mps 748 mmHg 78%
    01:00 +17°C° 0 mm 2 mps 747 mmHg 77%
    02:00 +17°C° 0 mm 3 mps 747 mmHg 70%
    03:00 +17°C° 0.1 mm 4 mps 747 mmHg 71%
    04:00 +17°C° 0.1 mm 4 mps 746 mmHg 71%
    05:00 +15°C° 0.1 mm 5 mps 746 mmHg 72%
    06:00 +16°C° 0.1 mm 5 mps 746 mmHg 67%
    07:00 +18°C° 0.1 mm 4 mps 746 mmHg 61%
    08:00 +18°C° 0.1 mm 4 mps 746 mmHg 56%
    09:00 +19°C° 0.1 mm 4 mps 746 mmHg 53%
    10:00 +19°C° 0.1 mm 3 mps 746 mmHg 49%
    11:00 +19°C° 0.1 mm 3 mps 746 mmHg 46%
    12:00 +19°C° 0.1 mm 3 mps 746 mmHg 49%
    13:00 +19°C° 0.1 mm 3 mps 746 mmHg 53%
    14:00 +18°C° 0.1 mm 3 mps 746 mmHg 56%
    15:00 +18°C° 0 mm 3 mps 746 mmHg 57%
    16:00 +18°C° 0 mm 4 mps 746 mmHg 57%
    17:00 +18°C° 0 mm 4 mps 746 mmHg 58%
    18:00 +17°C° 0 mm 3 mps 746 mmHg 62%
    19:00 +16°C° 0 mm 3 mps 746 mmHg 67%
    20:00 +15°C° 0 mm 2 mps 746 mmHg 72%
    21:00 +15°C° 0.4 mm 2 mps 746 mmHg 74%
    22:00 +14°C° 0.4 mm 2 mps 746 mmHg 75%
    23:00 +14°C° 0.4 mm 2 mps 746 mmHg 77%

    Tomorrow, 25 March, Monday

    Time Temperature Precipitation Wind Pressure Humidity
    00:00 +14°C° 1 mm 2 mps 746 mmHg 77%
    01:00 +14°C° 1 mm 2 mps 746 mmHg 78%
    02:00 +14°C° 1 mm 2 mps 746 mmHg 78%
    03:00 +14°C° 0.7 mm 2 mps 746 mmHg 78%
    04:00 +13°C° 0.7 mm 2 mps 745 mmHg 78%
    05:00 +13°C° 0.7 mm 2 mps 745 mmHg 78%
    06:00 +14°C° 0.3 mm 2 mps 746 mmHg 73%
    07:00 +14°C° 0.3 mm 2 mps 746 mmHg 68%
    08:00 +15°C° 0.3 mm 2 mps 747 mmHg 63%
    09:00 +14°C° 0 mm 3 mps 747 mmHg 58%
    10:00 +15°C° 0 mm 4 mps 747 mmHg 52%
    11:00 +16°C° 0 mm 5 mps 748 mmHg 47%
    12:00 +16°C° 0.1 mm 6 mps 748 mmHg 48%
    13:00 +16°C° 0.1 mm 6 mps 748 mmHg 49%
    14:00 +16°C° 0.1 mm 7 mps 748 mmHg 49%
    15:00 +16°C° 0 mm 6 mps 748 mmHg 52%
    16:00 +15°C° 0 mm 5 mps 749 mmHg 55%
    17:00 +14°C° 0 mm 5 mps 749 mmHg 58%
    18:00 +14°C° 0 mm 4 mps 749 mmHg 59%
    19:00 +13°C° 0 mm 3 mps 750 mmHg 60%
    20:00 +14°C° 0 mm 2 mps 751 mmHg 61%
    21:00 +13°C° 0 mm 2 mps 751 mmHg 61%
    22:00 +13°C° 0 mm 2 mps 751 mmHg 62%
    23:00 +13°C° 0 mm 2 mps 751 mmHg 62%

    Day after tomorrow, 26 March, Tuesday

    Time Temperature Precipitation Wind Pressure Humidity
    00:00 +12°C° 0 mm 3 mps 752 mmHg 63%
    01:00 +12°C° 0 mm 3 mps 752 mmHg 65%
    02:00 +11°C° 0 mm 3 mps 752 mmHg 66%
    03:00 +11°C° 0 mm 3 mps 752 mmHg 67%
    04:00 +11°C° 0 mm 3 mps 753 mmHg 68%
    05:00 +11°C° 0 mm 4 mps 753 mmHg 68%
    06:00 +12°C° 0 mm 4 mps 753 mmHg 66%
    07:00 +13°C° 0 mm 4 mps 754 mmHg 63%
    08:00 +14°C° 0 mm 4 mps 754 mmHg 60%
    09:00 +15°C° 0 mm 4 mps 754 mmHg 57%
    10:00 +17°C° 0 mm 4 mps 755 mmHg 54%
    11:00 +17°C° 0 mm 5 mps 755 mmHg 51%
    12:00 +17°C° 0 mm 5 mps 754 mmHg 51%
    13:00 +17°C° 0 mm 5 mps 754 mmHg 52%
    14:00 +17°C° 0 mm 5 mps 754 mmHg 53%
    15:00 +17°C° 0 mm 5 mps 754 mmHg 54%
    16:00 +17°C° 0 mm 4 mps 754 mmHg 56%
    17:00 +17°C° 0 mm 4 mps 754 mmHg 58%
    18:00 +16°C° 0 mm 3 mps 755 mmHg 61%
    19:00 +15°C° 0 mm 2 mps 755 mmHg 64%
    20:00 +14°C° 0 mm 2 mps 756 mmHg 67%
    21:00 +14°C° 0 mm 2 mps 756 mmHg 69%
    22:00 +14°C° 0 mm 2 mps 756 mmHg 70%
    23:00 +13°C° 0 mm 3 mps 756 mmHg 71%

    27 March, Wednesday

    Time Temperature Precipitation Wind Pressure Humidity
    00:00 +13°C° 0 mm 3 mps 756 mmHg 72%
    01:00 +13°C° 0 mm 3 mps 756 mmHg 73%
    02:00 +12°C° 0 mm 3 mps 756 mmHg 74%
    03:00 +12°C° 0 mm 3 mps 756 mmHg 74%
    04:00 +12°C° 0 mm 3 mps 756 mmHg 75%
    05:00 +12°C° 0 mm 3 mps 756 mmHg 75%
    06:00 +13°C° 0 mm 4 mps 756 mmHg 71%
    07:00 +14°C° 0 mm 4 mps 757 mmHg 68%
    08:00 +15°C° 0 mm 4 mps 757 mmHg 64%
    09:00 +16°C° 0 mm 5 mps 757 mmHg 61%
    10:00 +17°C° 0 mm 6 mps 757 mmHg 58%
    11:00 +19°C° 0 mm 6 mps 758 mmHg 56%
    12:00 +19°C° 0.1 mm 6 mps 757 mmHg 58%
    13:00 +18°C° 0.1 mm 7 mps 757 mmHg 61%
    14:00 +18°C° 0.1 mm 7 mps 757 mmHg 63%
    15:00 +17°C° 0 mm 6 mps 757 mmHg 66%
    16:00 +17°C° 0 mm 5 mps 757 mmHg 69%
    17:00 +17°C° 0 mm 4 mps 757 mmHg 71%
    18:00 +17°C° 0 mm 4 mps 758 mmHg 75%
    19:00 +16°C° 0 mm 3 mps 758 mmHg 79%
    20:00 +15°C° 0 mm 2 mps 758 mmHg 83%
    21:00 +15°C° 0 mm 2 mps 759 mmHg 82%
    22:00 +15°C° 0 mm 2 mps 759 mmHg 82%
    23:00 +14°C° 0 mm 3 mps 759 mmHg 81%

    28 March, Thursday

    Time Temperature Precipitation Wind Pressure Humidity
    00:00 +13°C° 0 mm 3 mps 759 mmHg 82%
    01:00 +13°C° 0 mm 3 mps 758 mmHg 83%
    02:00 +13°C° 0 mm 3 mps 758 mmHg 84%
    03:00 +13°C° 0 mm 3 mps 758 mmHg 85%
    04:00 +13°C° 0 mm 3 mps 758 mmHg 85%
    05:00 +12°C° 0 mm 3 mps 759 mmHg 86%
    06:00 +13°C° 0 mm 3 mps 759 mmHg 80%
    07:00 +14°C° 0 mm 3 mps 759 mmHg 74%
    08:00 +16°C° 0 mm 3 mps 759 mmHg 69%
    09:00 +17°C° 0 mm 3 mps 759 mmHg 64%
    10:00 +18°C° 0 mm 3 mps 759 mmHg 60%
    11:00 +19°C° 0 mm 3 mps 759 mmHg 55%
    12:00 +20°C° 0 mm 4 mps 759 mmHg 56%
    13:00 +20°C° 0 mm 4 mps 758 mmHg 56%
    14:00 +20°C° 0 mm 4 mps 758 mmHg 57%
    15:00 +20°C° 0 mm 4 mps 757 mmHg 61%
    16:00 +19°C° 0 mm 3 mps 757 mmHg 65%
    17:00 +18°C° 0 mm 3 mps 757 mmHg 69%
    18:00 +17°C° 0 mm 3 mps 757 mmHg 73%
    19:00 +17°C° 0 mm 2 mps 757 mmHg 77%
    20:00 +16°C° 0 mm 1 mps 757 mmHg 81%
    21:00 +16°C° 0 mm 1 mps 757 mmHg 80%
    22:00 +15°C° 0 mm 1 mps 757 mmHg 78%
    23:00 +15°C° 0 mm 2 mps 757 mmHg 77%

    29 March, Friday

    Time Temperature Precipitation Wind Pressure Humidity
    00:00 +15°C° 0 mm 1 mps 756 mmHg 72%
    01:00 +15°C° 0 mm 1 mps 756 mmHg 68%
    02:00 +15°C° 0 mm 1 mps 755 mmHg 63%
    03:00 +16°C° 0 mm 1 mps 755 mmHg 61%
    04:00 +16°C° 0 mm 1 mps 756 mmHg 59%
    05:00 +16°C° 0 mm 1 mps 756 mmHg 57%
    06:00 +18°C° 0 mm 1 mps 756 mmHg 54%
    07:00 +17°C° 0 mm 2 mps 756 mmHg 51%
    08:00 +18°C° 0 mm 3 mps 756 mmHg 47%
    09:00 +19°C° 0 mm 3 mps 756 mmHg 47%
    10:00 +20°C° 0 mm 2 mps 755 mmHg 46%
    11:00 +21°C° 0 mm 2 mps 755 mmHg 46%
    12:00 +21°C° 0 mm 3 mps 754 mmHg 47%
    13:00 +21°C° 0 mm 4 mps 753 mmHg 48%
    14:00 +21°C° 0 mm 4 mps 753 mmHg 50%
    15:00 +21°C° 0 mm 4 mps 752 mmHg 49%
    16:00 +22°C° 0 mm 4 mps 751 mmHg 48%
    17:00 +22°C° 0 mm 4 mps 750 mmHg 47%
    18:00 +21°C° 0 mm 5 mps 750 mmHg 47%
    19:00 +20°C° 0 mm 5 mps 750 mmHg 48%
    20:00 +20°C° 0 mm 5 mps 750 mmHg 48%
    21:00 +20°C° 0 mm 6 mps 749 mmHg 48%
    22:00 +20°C° 0 mm 7 mps 748 mmHg 48%
    23:00 +20°C° 0 mm 8 mps 747 mmHg 48%
    Show more